York, NE

4:21 AM CDT on May 30, 2017 (GMT -0500)
York Municipal

Weather History for KJYR - November, 2012

Change the Weather History Date:

Monday, November 5, 2012

  Actual Average Record
Temperature  
Mean Temperature 38 °F -  
Max Temperature 42 °F 54 °F 77 °F (1978)
Min Temperature 33 °F 31 °F 0 °F (1991)
Degree Days  
Heating Degree Days 28    
Moisture  
Dew Point 37 °F    
Average Humidity 96    
Maximum Humidity 100    
Minimum Humidity 81    
Precipitation  
Precipitation 0.00 in - - ()
Sea Level Pressure  
Sea Level Pressure 30.13 in    
Wind  
Wind Speed 11 mph (North)    
Max Wind Speed 21 mph    
Max Gust Speed 26 mph    
Visibility 10 miles    
Events      
Averages and records for this station are not official NWS values.
T = Trace of Precipitation, MM = Missing Value Source: NWS Daily Summary

Daily Weather History Graph

Daily Weather History Graph

Search for Another Location

Airport or City:

Trip Planner

Search our weather history database for the weather conditions in past years. The results will help you decide how hot, cold, wet, or windy it might be!

Date:

Astronomy

Nov. 05, 2012 Rise Set
Actual Time 7:06 AM CST 5:21 PM CST
Civil Twilight 6:37 AM CST 5:49 PM CST
Nautical Twilight 6:04 AM CST 6:22 PM CST
Astronomical Twilight 5:32 AM CST 6:54 PM CST
Moon 11:00 PM CST (11/5) 12:26 PM CST (11/5)
Length of Visible Light 11h 12m
Length of Day
10h 14m
Waning Gibbous, 62% of the Moon is Illuminated
Nov 5
Waning Gibbous
Nov 6
Last Quarter
Nov 13
New
Nov 20
First Quarter
Nov 28
Full

Hourly Weather History & Observations

Time (CST) Temp. Windchill Dew Point Humidity Pressure Visibility Wind Dir Wind Speed Gust Speed Precip Events Conditions
12:15 AM 42.8 °F 36.6 °F 42.8 °F 100% 30.07 in 9.0 mi NNW 11.5 mph - N/A   Overcast
12:35 AM 42.8 °F 37.5 °F 42.8 °F 100% 30.07 in 10.0 mi NNW 9.2 mph - N/A   Overcast
12:55 AM 41.0 °F 34.3 °F 41.0 °F 100% 30.08 in 10.0 mi NNW 11.5 mph - N/A   Overcast
1:35 AM 41.0 °F 34.3 °F 41.0 °F 100% 30.09 in 10.0 mi NNW 11.5 mph 19.6 mph N/A   Overcast
1:55 AM 41.0 °F 34.3 °F 41.0 °F 100% 30.09 in 10.0 mi NNW 11.5 mph - N/A   Overcast
2:15 AM 41.0 °F 33.9 °F 41.0 °F 100% 30.10 in 10.0 mi NNW 12.7 mph - N/A   Overcast
2:35 AM 41.0 °F 33.5 °F 41.0 °F 100% 30.10 in 10.0 mi NNW 13.8 mph - N/A   Overcast
2:55 AM 41.0 °F 34.3 °F 41.0 °F 100% 30.10 in 10.0 mi North 11.5 mph - N/A   Overcast
3:15 AM 41.0 °F 33.1 °F 41.0 °F 100% 30.10 in 10.0 mi North 15.0 mph 23.0 mph N/A   Overcast
3:55 AM 39.2 °F 31.6 °F 39.2 °F 100% 30.10 in 10.0 mi North 12.7 mph - N/A   Overcast
4:35 AM 39.2 °F 31.6 °F 39.2 °F 100% 30.12 in 10.0 mi North 12.7 mph 17.3 mph N/A   Overcast
4:55 AM 39.2 °F 30.8 °F 39.2 °F 100% 30.12 in 10.0 mi North 15.0 mph 21.9 mph N/A   Overcast
5:15 AM 39.2 °F 31.2 °F 39.2 °F 100% 30.13 in 10.0 mi North 13.8 mph 17.3 mph N/A   Overcast
5:35 AM 39.2 °F 30.5 °F 39.2 °F 100% 30.13 in 10.0 mi North 16.1 mph 21.9 mph N/A   Overcast
5:55 AM 39.2 °F 31.2 °F 39.2 °F 100% 30.13 in 10.0 mi North 13.8 mph 20.7 mph N/A   Overcast
6:55 AM 39.2 °F 32.0 °F 39.2 °F 100% 30.14 in 10.0 mi North 11.5 mph 18.4 mph N/A   Overcast
7:15 AM 37.4 °F 28.5 °F 37.4 °F 100% 30.14 in 10.0 mi NNW 15.0 mph 20.7 mph N/A   Overcast
7:35 AM 37.4 °F 28.5 °F 37.4 °F 100% 30.15 in 10.0 mi North 15.0 mph - N/A   Overcast
7:55 AM 37.4 °F 29.8 °F 37.4 °F 100% 30.15 in 10.0 mi North 11.5 mph 19.6 mph N/A   Overcast
8:15 AM 37.4 °F 28.5 °F 37.4 °F 100% 30.16 in 10.0 mi North 15.0 mph 20.7 mph N/A   Overcast
8:35 AM 37.4 °F 28.9 °F 37.4 °F 100% 30.17 in 10.0 mi North 13.8 mph 20.7 mph N/A   Overcast
8:55 AM 37.4 °F 27.8 °F 37.4 °F 100% 30.18 in 10.0 mi North 17.3 mph 20.7 mph N/A   Overcast
9:35 AM 37.4 °F 29.3 °F 37.4 °F 100% 30.19 in 9.0 mi North 12.7 mph 20.7 mph N/A   Overcast
9:55 AM 37.4 °F 27.2 °F 37.4 °F 100% 30.18 in 10.0 mi North 19.6 mph 24.2 mph N/A   Overcast
10:15 AM 37.4 °F 28.9 °F 35.6 °F 93% 30.19 in 10.0 mi North 13.8 mph 26.5 mph N/A   Overcast
10:35 AM 37.4 °F 29.8 °F 35.6 °F 93% 30.19 in 10.0 mi North 11.5 mph 17.3 mph N/A   Overcast
10:55 AM 39.2 °F 32.0 °F 35.6 °F 87% 30.20 in 9.0 mi North 11.5 mph 17.3 mph N/A   Overcast
11:35 AM 39.2 °F 29.3 °F 35.6 °F 87% 30.19 in 10.0 mi North 20.7 mph 25.3 mph N/A   Overcast
11:55 AM 39.2 °F 30.8 °F 35.6 °F 87% 30.19 in 9.0 mi North 15.0 mph 21.9 mph N/A   Overcast
12:15 PM 39.2 °F 31.2 °F 35.6 °F 87% 30.19 in 10.0 mi North 13.8 mph 21.9 mph N/A   Overcast
12:35 PM 39.2 °F 31.2 °F 35.6 °F 87% 30.19 in 10.0 mi North 13.8 mph 20.7 mph N/A   Overcast
12:55 PM 39.2 °F 32.0 °F 35.6 °F 87% 30.18 in 10.0 mi North 11.5 mph - N/A   Overcast
1:15 PM 39.2 °F 32.0 °F 35.6 °F 87% 30.18 in 10.0 mi North 11.5 mph 18.4 mph N/A   Overcast
1:35 PM 39.2 °F 32.5 °F 35.6 °F 87% 30.17 in 10.0 mi North 10.4 mph 17.3 mph N/A   Overcast
1:55 PM 39.2 °F 31.6 °F 35.6 °F 87% 30.16 in 10.0 mi North 12.7 mph 17.3 mph N/A   Overcast
2:35 PM 39.2 °F 34.2 °F 35.6 °F 87% 30.14 in 10.0 mi North 6.9 mph - N/A   Overcast
2:55 PM 39.2 °F 33.0 °F 35.6 °F 87% 30.14 in 10.0 mi North 9.2 mph - N/A   Overcast
3:15 PM 41.0 °F 37.1 °F 35.6 °F 81% 30.14 in 10.0 mi North 5.8 mph - N/A   Overcast
3:35 PM 41.0 °F 35.8 °F 35.6 °F 81% 30.14 in 10.0 mi NNE 8.1 mph - N/A   Overcast
3:55 PM 41.0 °F 35.2 °F 35.6 °F 81% 30.14 in 10.0 mi NE 9.2 mph - N/A   Overcast
4:15 PM 39.2 °F 34.2 °F 35.6 °F 87% 30.14 in 10.0 mi North 6.9 mph - N/A   Overcast
4:35 PM 39.2 °F 33.6 °F 35.6 °F 87% 30.13 in 9.0 mi NNE 8.1 mph - N/A   Overcast
4:55 PM 37.4 °F 34.9 °F 35.6 °F 93% 30.12 in 9.0 mi NE 3.5 mph - N/A   Overcast
5:15 PM 37.4 °F 33.8 °F 35.6 °F 93% 30.12 in 10.0 mi NNE 4.6 mph - N/A   Overcast
5:35 PM 37.4 °F - 35.6 °F 93% 30.12 in 8.0 mi Calm Calm - N/A   Overcast
5:55 PM 35.6 °F - 35.6 °F 100% 30.12 in 10.0 mi Calm Calm - N/A   Mostly Cloudy
6:15 PM 35.6 °F - 33.8 °F 93% 30.13 in 10.0 mi Calm Calm - N/A   Clear
6:35 PM 33.8 °F - 33.8 °F 100% 30.14 in 9.0 mi Calm Calm - N/A   Clear
6:55 PM 35.6 °F - 35.6 °F 100% 30.14 in 10.0 mi Calm Calm - N/A   Clear
7:15 PM 35.6 °F 30.7 °F 35.6 °F 100% 30.12 in 8.0 mi SE 5.8 mph - N/A   Clear
7:55 PM 35.6 °F 30.7 °F 35.6 °F 100% 30.11 in 8.0 mi SE 5.8 mph - N/A   Clear
8:15 PM 35.6 °F 31.7 °F 35.6 °F 100% 30.10 in 10.0 mi SSE 4.6 mph - N/A   Clear
8:35 PM 35.6 °F 30.7 °F 35.6 °F 100% 30.09 in 9.0 mi SSE 5.8 mph - N/A   Partly Cloudy
8:55 PM 35.6 °F 29.9 °F 35.6 °F 100% 30.09 in 9.0 mi SSE 6.9 mph - N/A   Mostly Cloudy
9:15 PM 37.4 °F 32.1 °F 37.4 °F 100% 30.10 in 9.0 mi SSE 6.9 mph - N/A   Overcast
9:35 PM 37.4 °F 32.1 °F 37.4 °F 100% 30.09 in 9.0 mi SSE 6.9 mph - N/A   Overcast
9:55 PM 37.4 °F 32.8 °F 37.4 °F 100% 30.09 in 9.0 mi South 5.8 mph - N/A   Overcast
10:15 PM 37.4 °F 32.1 °F 37.4 °F 100% 30.08 in 10.0 mi South 6.9 mph - N/A   Overcast
10:35 PM 37.4 °F 32.1 °F 37.4 °F 100% 30.07 in 10.0 mi South 6.9 mph - N/A   Overcast
10:55 PM 37.4 °F 30.8 °F 37.4 °F 100% 30.05 in 10.0 mi South 9.2 mph - N/A   Overcast
11:15 PM 37.4 °F 32.1 °F 37.4 °F 100% 30.05 in 10.0 mi South 6.9 mph - N/A   Overcast
11:35 PM 37.4 °F 32.8 °F 37.4 °F 100% 30.05 in 10.0 mi SSW 5.8 mph - N/A   Overcast
11:55 PM 37.4 °F 32.1 °F 37.4 °F 100% 30.05 in 10.0 mi SSW 6.9 mph - N/A   Mostly Cloudy